Tracking 34401 objects as of 17-Jun-2026
HD Live streaming from Space Station
objects crossing your sky now

NAVSTAR 56 (USA 180)

Track NAVSTAR 56 (USA 180) now!
NAVSTAR 56 (USA 180) is classified as:


NORAD ID: 28474
Int'l Code: 2004-045A
Perigee: 19,738.9 km
Apogee: 20,641.2 km
Inclination: 55.1 °
Period: 718.0 minutes
Semi major axis: 26561 km
RCS: 2.3866 m2 (large)
Launch date: November 6, 2004
Source: United States (US)
Launch site: AIR FORCE EASTERN TEST RANGE (AFETR)
PRN: 2

Navstar 56, also known as USA 180 and as GPS 2R-13, is an American navigational satellite that was launched by a Delta 2 rocket from Cape Canaveral at 05:39 UT on 6 November 2004. It is part of the 24-element GPS fleet and will replace the oldest member of the fleet, GPS 2A-11 launched in July 1991. It will be located in Plane D, Slot 1 position.
Your satellite tracking list
Your tracking list is empty




NASA's NSSDC Master Catalog

Two Line Element Set (TLE):
1 28474U 04045A   26168.32573105 -.00000084  00000-0  00000-0 0  9990
2 28474  55.1354 324.8903 0169864 316.4138  61.5041  2.00555797158437
Source of the keplerian elements: AFSPC